GW2412 Weather Reports


Display with metric or nautical units.
time (UTC)temp
F
wind
direction
speed
MPH
gust
MPH
rain 1hr
in
rain 24hr
in
rain mn
in
humidity
%
barometer
mb
20260505022516 42 47 14.0 21.0 0.00 0.00 0.00 1 1016.2
20260505022016 43 38 12.0 18.0 0.00 0.00 0.00 1 1016.1
20260505021554 44 34 11.0 16.0 0.00 0.00 0.00 1 1016.3
20260505021017 45 26 9.0 17.0 0.00 0.00 0.00 1 1016.2
20260505020514 45 24 13.0 17.0 0.00 0.00 0.00 1 1016.2
20260505020106 46 15 11.0 17.0 0.00 0.00 0.00 1 1016.2
20260505015516 46 360 13.0 22.0 0.00 0.00 0.00 1 1015.9
20260505015015 47 23 15.0 22.0 0.00 0.00 0.00 1 1015.7
20260505014548 47 15 16.0 26.0 0.00 0.00 0.00 1 1015.8
20260505014014 47 5 19.0 26.0 0.00 0.00 0.00 1 1015.6
20260505013516 47 355 19.0 24.0 0.00 0.00 0.00 1 1015.5
20260505013053 48 5 19.0 24.0 0.00 0.00 0.00 1 1015.2
20260505012514 48 352 17.0 25.0 0.00 0.00 0.00 1 1015.4
20260505012020 48 348 19.0 25.0 0.00 0.00 0.00 1 1015.3
20260505011550 48 360 17.0 23.0 0.00 0.00 0.00 1 1015.1
20260505011014 49 355 13.0 24.0 0.00 0.00 0.00 1 1015.3
20260505010514 49 12 18.0 28.0 0.00 0.00 0.00 1 1015.2
20260505010109 49 5 19.0 31.0 0.00 0.00 0.00 1 1015.1
20260505005516 49 5 23.0 31.0 0.00 0.00 0.00 1 1014.9
20260505005019 49 360 22.0 29.0 0.00 0.00 0.00 1 1014.8
20260505004550 50 333 18.0 26.0 0.00 0.00 0.00 1 1015.1
20260505004012 50 360 14.0 26.0 0.00 0.00 0.00 1 1015.2
20260505003516 50 337 20.0 27.0 0.00 0.00 0.00 1 1014.6
20260505003050 50 348 21.0 31.0 0.00 0.00 0.00 1 1014.7
20260505002519 50 344 21.0 31.0 0.00 0.00 0.00 1 1014.7
20260505002015 50 5 20.0 26.0 0.00 0.00 0.00 1 1014.5
20260505001548 51 344 20.0 32.0 0.00 0.00 0.00 1 1015.0
20260505001018 51 318 22.0 32.0 0.00 0.00 0.00 1 1015.0
20260505000516 51 360 22.0 30.0 0.00 0.00 0.00 1 1014.6
20260505000100 51 345 19.0 32.0 0.00 0.00 0.00 1 1015.0
20260504235516 51 346 20.0 30.0 0.00 0.00 0.00 1 1014.9
20260504235016 52 335 24.0 34.0 0.00 0.00 0.00 1 1014.7
20260504234552 51 336 27.0 34.0 0.00 0.00 0.00 1 1014.3
20260504234013 51 327 23.0 33.0 0.00 0.00 0.00 1 1014.8
20260504233515 51 337 24.0 33.0 0.00 0.00 0.00 1 1014.7
20260504233054 51 347 20.0 34.0 0.00 0.00 0.00 1 1014.9
20260504232513 51 360 27.0 34.0 0.00 0.00 0.00 1 1014.2
20260504232016 52 340 23.0 34.0 0.00 0.00 0.00 1 1014.7
20260504231552 52 322 20.0 32.0 0.00 0.00 0.00 1 1014.9
20260504231015 51 333 24.0 36.0 0.00 0.00 0.00 1 1014.4
20260504230512 51 306 22.0 34.0 0.00 0.00 0.00 1 1014.8
20260504230108 52 340 22.0 34.0 0.00 0.00 0.00 1 1014.7
20260504225514 52 342 20.0 31.0 0.00 0.00 0.00 1 1015.0
20260504225012 51 346 25.0 33.0 0.00 0.00 0.00 1 1014.5
20260504224606 51 343 27.0 33.0 0.00 0.00 0.00 1 1014.7
20260504224013 51 339 24.0 31.0 0.00 0.00 0.00 1 1014.7
20260504223516 52 322 22.0 31.0 0.00 0.00 0.00 1 1014.9
20260504223100 51 325 22.0 35.0 0.00 0.00 0.00 1 1014.8
20260504222513 51 324 23.0 35.0 0.00 0.00 0.00 1 1014.2
20260504222014 50 324 23.0 34.0 0.00 0.00 0.00 1 1014.9
20260504221549 51 340 24.0 31.0 0.00 0.00 0.00 1 1014.7
20260504221014 52 299 17.0 30.0 0.00 0.00 0.00 1 1015.1
20260504220515 51 349 20.0 31.0 0.00 0.00 0.00 1 1015.3
20260504220059 50 328 24.0 31.0 0.00 0.00 0.00 1 1014.9
20260504215517 50 317 24.0 31.0 0.00 0.00 0.00 1 1014.6
20260504215013 50 344 22.0 35.0 0.00 0.00 0.00 1 1014.9
20260504214556 50 338 25.0 35.0 0.00 0.00 0.00 1 1014.6
20260504214019 51 338 21.0 30.0 0.00 0.00 0.00 1 1015.0
20260504213516 51 360 21.0 30.0 0.00 0.00 0.00 1 1015.1
20260504213050 51 301 21.0 29.0 0.00 0.00 0.00 1 1015.0
20260504212516 49 305 19.0 32.0 0.00 0.00 0.00 1 1015.2
20260504212014 48 310 22.0 33.0 0.00 0.00 0.00 1 1015.2
20260504211558 49 320 24.0 33.0 0.00 0.00 0.00 1 1015.3
20260504211016 50 355 23.0 32.0 0.00 0.00 0.00 1 1015.3
20260504210521 51 325 23.0 32.0 0.00 0.00 0.00 1 1015.3
20260504210106 49 360 24.0 32.0 0.00 0.00 0.00 1 1015.3
20260504205517 52 342 20.0 32.0 0.00 0.00 0.00 1 1015.2
20260504205017 50 338 24.0 30.0 0.00 0.00 0.00 1 1015.1
20260504204602 48 339 18.0 28.0 0.00 0.00 0.00 1 1015.5
20260504204020 47 344 21.0 30.0 0.00 0.00 0.00 1 1015.6
20260504203517 48 323 22.0 31.0 0.00 0.00 0.00 1 1015.8
20260504203057 48 326 20.0 31.0 0.00 0.00 0.00 1 1015.5
20260504202518 49 314 21.0 30.0 0.00 0.00 0.00 1 1015.4
20260504202016 49 312 19.0 30.0 0.00 0.00 0.00 1 1015.7
20260504201552 49 316 22.0 31.0 0.00 0.00 0.00 1 1015.5
20260504201016 49 317 18.0 33.0 0.00 0.00 0.00 1 1015.5
20260504200514 50 287 17.0 33.0 0.00 0.00 0.00 1 1015.5
20260504195516 50 346 19.0 30.0 0.00 0.00 0.00 1 1015.4
20260504195019 49 355 21.0 30.0 0.00 0.00 0.00 1 1015.0
20260504194609 50 327 19.0 30.0 0.00 0.00 0.00 1 1015.2
20260504194017 51 286 19.0 29.0 0.00 0.00 0.00 1 1015.5
20260504193521 49 346 20.0 31.0 0.00 0.00 0.00 1 1015.0
20260504193102 50 338 20.0 31.0 0.00 0.00 0.00 1 1015.4
20260504192518 49 348 23.0 29.0 0.00 0.00 0.00 1 1015.0
20260504192016 50 325 21.0 28.0 0.00 0.00 0.00 1 1015.3
20260504191609 52 342 19.0 27.0 0.00 0.00 0.00 1 1015.4
20260504191018 50 329 21.0 28.0 0.00 0.00 0.00 1 1015.0
20260504190520 51 305 19.0 29.0 0.00 0.00 0.00 1 1015.0
20260504190100 50 344 24.0 29.0 0.00 0.00 0.00 1 1015.0
20260504185515 51 322 19.0 32.0 0.00 0.00 0.00 1 1015.1
20260504185019 52 317 24.0 31.0 0.00 0.00 0.00 1 1014.9
20260504184603 50 315 23.0 31.0 0.00 0.00 0.00 1 1015.4
20260504184018 49 336 22.0 32.0 0.00 0.00 0.00 1 1015.3
20260504183518 50 341 22.0 34.0 0.00 0.00 0.00 1 1015.4
20260504183100 50 345 21.0 34.0 0.00 0.00 0.00 1 1015.3
20260504182520 50 322 20.0 27.0 0.00 0.00 0.00 1 1015.4
20260504182021 49 331 20.0 31.0 0.00 0.00 0.00 1 1015.3
20260504181604 49 327 22.0 29.0 0.00 0.00 0.00 1 1015.2
20260504181017 50 294 18.0 30.0 0.00 0.00 0.00 1 1015.3
20260504180517 50 323 23.0 32.0 0.00 0.00 0.00 1 1015.3
20260504180103 50 332 23.0 32.0 0.00 0.00 0.00 1 1015.2
20260504175515 50 335 25.0 32.0 0.00 0.00 0.00 1 1015.2
20260504175021 50 331 24.0 30.0 0.00 0.00 0.00 1 1015.3
20260504174600 50 338 19.0 33.0 0.00 0.00 0.00 1 1015.4
20260504174023 50 330 20.0 27.0 0.00 0.00 0.00 1 1014.9
20260504173522 50 334 19.0 30.0 0.00 0.00 0.00 1 1015.6
20260504173101 49 325 22.0 30.0 0.00 0.00 0.00 1 1015.4
20260504172525 49 344 18.0 31.0 0.00 0.00 0.00 1 1015.6
20260504172024 49 302 19.0 31.0 0.00 0.00 0.00 1 1015.5
20260504171554 48 342 19.0 31.0 0.00 0.00 0.00 1 1015.4
20260504171024 49 345 20.0 25.0 0.00 0.00 0.00 1 1015.5
20260504170519 48 349 19.0 28.0 0.00 0.00 0.00 1 1015.3
20260504151015 46 321 18.0 24.0 0.00 0.00 0.00 1 1015.5
20260504150516 45 315 17.0 24.0 0.00 0.00 0.00 1 1015.7
20260504141022 44 296 11.0 19.0 0.00 0.00 0.00 1 1015.6
20260504140516 43 286 14.0 18.0 0.00 0.00 0.00 1 1015.5
20260504130516 42 289 8.0 11.0 0.00 0.00 0.00 1 1015.7
20260504120133 43 300 6.0 13.0 0.00 0.00 0.00 1 1015.8
20260504110515 42 311 14.0 20.0 0.00 0.00 0.00 1 1015.8
20260504100536 42 317 9.0 14.0 0.00 0.00 0.00 1 1015.9
20260504090109 42 21 15.0 22.0 0.00 0.00 0.00 1 1015.0
20260504081812 43 360 15.0 27.0 0.00 0.00 0.00 1 1014.5
20260504081012 43 5 19.0 34.0 0.00 0.00 0.00 1 1014.1
20260504080517 44 355 21.0 34.0 0.00 0.00 0.00 1 1013.7
20260504050509 52 10 29.0 38.0 0.00 0.00 0.00 1 1010.2
20260504045510 52 29 27.0 38.0 0.00 0.00 0.00 1 1009.9
20260504045014 52 27 27.0 38.0 0.00 0.00 0.00 1 1009.9
20260504044528 52 23 28.0 39.0 0.00 0.00 0.00 1 1010.0
20260504044010 52 30 29.0 45.0 0.00 0.00 0.00 1 1009.9
20260504043510 53 30 31.0 45.0 0.00 0.00 0.00 1 1009.5
20260504043030 54 28 28.0 38.0 0.00 0.00 0.00 1 1009.7
20260504042510 55 23 27.0 38.0 0.00 0.00 0.00 1 1009.5
20260504042011 56 19 26.0 35.0 0.00 0.00 0.00 1 1009.5
20260504041534 56 44 23.0 34.0 0.00 0.00 0.00 1 1009.5
20260504041009 57 34 20.0 30.0 0.00 0.00 0.00 1 1009.7
20260504040509 57 35 20.0 29.0 0.00 0.00 0.00 1 1009.7
20260504040030 57 38 16.0 28.0 0.00 0.00 0.00 1 1009.4
20260504035509 57 28 14.0 28.0 0.00 0.00 0.00 1 1009.6
20260504035010 57 30 13.0 20.0 0.00 0.00 0.00 1 1009.5
20260504034539 57 355 13.0 20.0 0.00 0.00 0.00 1 1009.2
20260504034013 58 27 9.0 19.0 0.00 0.00 0.00 1 1009.1
20260504033509 57 344 11.0 26.0 0.00 0.00 0.00 1 1008.8
20260504033030 57 19 19.0 28.0 0.00 0.00 0.00 1 1008.9
20260504032512 57 27 21.0 28.0 0.00 0.00 0.00 1 1008.6
20260504032010 57 23 19.0 28.0 0.00 0.00 0.00 1 1008.3
20260504031528 57 30 21.0 30.0 0.00 0.00 0.00 1 1008.3
20260504031009 58 32 24.0 30.0 0.00 0.00 0.00 1 1008.6
20260504030510 58 34 20.0 27.0 0.00 0.00 0.00 1 1008.3
20260504030036 58 45 20.0 31.0 0.00 0.00 0.00 1 1008.3
20260504025510 58 29 21.0 31.0 0.00 0.00 0.00 1 1008.2
20260504025017 58 46 18.0 27.0 0.00 0.00 0.00 1 1008.6
20260504024530 58 52 19.0 31.0 0.00 0.00 0.00 1 1008.5
20260504024012 58 59 20.0 31.0 0.00 0.00 0.00 1 1008.2
20260504023512 59 42 19.0 26.0 0.00 0.00 0.00 1 1008.3
20260504023031 59 43 17.0 25.0 0.00 0.00 0.00 1 1008.1